{"data":{"norad_id":59787,"epoch":"2026-09-21T11:33:01.668384Z","epoch_age_seconds":89656,"freshness":"FRESH","line1":"1 59787U 24093F   26264.48126931 -.00000634  00000+0 -13537-4 0  9995","line2":"2 59787  43.0033 182.7890 0000740 271.4233  88.6534 15.27576369132640","mean_motion":15.27576369,"eccentricity":7.4e-5,"inclination_deg":43.0033,"raan_deg":182.789,"arg_perigee_deg":271.4233,"mean_anomaly_deg":88.6534,"bstar":-1.3537e-5,"rev_number":13264,"period_min":94.266972782688,"perigee_km":482.55224000576,"apogee_km":483.56769715711,"semimajor_km":6861.1969685814,"source":"CELESTRAK","updated_at":"2026-09-22T09:00:49.072370Z"}}